Location: Hysolar-Haus
(48.7436°N, 9.0965°E)
Time: 10:16:18
(UTC+00:00)

Tiros 1 - Visible Passes

Search period start: 12 November 2019 00:00
Search period end: 22 November 2019 00:00
Orbit: 630 x 664 km, 48.4° (Epoch: 11 November)

Date Brightness Start Highest point End Pass type
(mag) Time Alt. Az. Time Alt. Az. Time Alt. Az.
12 Nov 7.2 17:24:13 10° WSW 17:28:48 64° SSE 17:30:51 32° E visible
12 Nov 9.0 19:06:17 10° W 19:08:30 28° W 19:08:30 28° W visible
13 Nov 7.0 17:50:11 10° WSW 17:54:50 82° S 17:55:45 57° E visible
13 Nov 9.8 19:32:22 10° W 19:33:25 17° W 19:33:25 17° W visible
14 Nov 7.4 16:34:13 10° WSW 16:38:48 62° SSE 16:42:59 12° E visible
14 Nov 7.1 18:16:15 10° W 18:20:39 79° W 18:20:39 79° W visible
15 Nov 7.1 17:00:10 10° WSW 17:04:49 81° S 17:07:53 21° E visible
15 Nov 8.2 18:42:21 10° W 18:45:33 43° W 18:45:33 43° W visible
16 Nov 7.0 17:26:14 10° W 17:30:54 88° S 17:32:48 36° E visible
16 Nov 9.2 19:08:26 10° W 19:10:27 25° W 19:10:27 25° W visible
17 Nov 7.2 16:10:09 10° WSW 16:14:47 79° S 16:19:28 10° E visible
17 Nov 7.0 17:52:20 10° W 17:56:59 81° S 17:57:44 62° ESE visible
17 Nov 10.0 19:34:36 10° W 19:35:24 14° W 19:35:24 14° W visible
18 Nov 7.1 16:36:13 10° W 16:40:52 88° S 16:45:03 13° E visible
18 Nov 7.5 18:18:25 10° W 18:22:43 60° SW 18:22:43 60° SW visible
19 Nov 7.1 17:02:18 10° W 17:06:58 82° S 17:10:05 21° ESE visible
19 Nov 8.6 18:44:34 10° W 18:47:45 34° WSW 18:47:45 34° WSW visible
20 Nov 7.4 17:28:24 10° W 17:33:00 64° SSW 17:35:11 30° SE visible
20 Nov 9.5 19:10:58 10° W 19:12:52 19° WSW 19:12:52 19° WSW visible
21 Nov 7.2 16:12:17 10° W 16:16:56 83° S 16:21:37 10° E visible
21 Nov 8.1 17:54:32 10° W 17:58:55 42° SSW 18:00:25 32° SSE visible
